STARLINK-35000 (65278 NORAD) Tracking and Keplerian Element Data

This shows tracking and keplerian element data for the satellite.

Feedback or suggestion? Click here.




ElementValue
Catalog65278
NameSTARLINK-35000
Epoch Orbit1932
Epoch Day354.11404807
Epoch Year2025
RAAN44.1647
Inclination97.6024
Eccentricity0.0001059
Argument of Perigee88.0663
Mean Anonmoly272.0685
Mean Motion15.05668223
Decay Rate6.436E-05
L11 65278U 25184F 25354.11404807 .00006436 00000+0 44964-3 0 9990
L22 65278 97.6024 44.1647 0001059 88.0663 272.0685 15.05668223 19323



Live tracking and technical data element details for STARLINK-35000 (NORAD 65278). STARLINK-35000 can be tracked NOW for your location showing map with azimuth and elevation plus other details from your city location.







IsCatalogInMostPopularTable: catalog: 65278, numindb: 3
Update: records affected: 1



GetName: 65278 STARLINK-35000

Hit Count: updated at: Sat, 07 Feb 2026 07:01:00 GMT